Temperature
18 18 18 18 18 18 18 18 18 18 18 18 18 18 18 18 18 18 18 18 18 18 18 18 18 18 18 18 18 18 18 18 18 18 18 18 18 18 18 18 18 18 18
18 18 18 18 18 18 18 18 18 18 18 18 18 18 18 18 18 18 18 18 18 18 18 18 18 18 18 18 18 18 18 18 18 18 18 18 18 18 18 18 18 18 17
18 18 18 18 18 18 18 18 18 18 18 18 18 18 18 18 18 18 18 18 18 18 18 18 18 18 18 18 18 18 18 18 18 18 18 18 18 18 18 18 17 17 17
18 18 18 18 18 18 18 18 18 18 18 18 18 18 18 18 18 18 18 18 18 18 18 18 18 18 18 18 18 18 18 18 18 18 18 18 18 18 18 17 17 17 17
18 18 18 18 18 18 18 18 18 18 18 18 18 18 18 18 18 18 18 18 18 18 18 18 18 18 18 18 18 17 17 17 18 18 18 18 18 18 18 17 17 17 17
18 18 18 18 18 18 18 18 18 18 18 18 18 18 18 18 18 18 18 18 18 18 18 18 18 18 18 18 17 17 17 18 18 18 18 18 18 18 18 18 18 17 17
18 18 18 18 18 18 18 18 18 18 18 18 18 18 18 18 18 18 18 18 18 18 18 18 18 18 18 18 17 17 17 18 18 18 18 18 18 18 18 18 17 17 17
18 18 18 18 18 18 18 18 18 18 18 18 18 18 18 18 18 18 18 18 18 18 18 18 18 18 18 17 17 17 17 17 17 18 18 18 18 18 18 18 17 17 17
18 18 18 18 18 18 18 18 18 18 18 18 18 18 18 18 18 18 18 18 18 18 18 18 18 18 18 17 17 17 17 17 18 18 18 18 18 17 17 17 17 17 17
18 18 18 18 18 18 18 18 18 18 18 18 18 18 18 18 18 18 18 18 18 18 18 18 18 18 17 17 17 17 17 17 18 18 18 18 18 17 17 17 17 17 17
18 18 18 18 18 18 18 18 18 18 18 18 18 18 18 18 18 18 18 18 18 18 18 18 18 17 17 17 17 17 17 18 18 18 18 17 17 17 17 17 17 17 17
19 19 19 18 18 18 18 18 18 18 18 18 18 18 18 18 18 18 18 18 18 18 18 18 18 18 18 17 17 17 17 18 18 18 18 17 17 17 17 17 17 17 17
19 19 19 18 18 18 18 18 18 18 18 18 18 18 18 18 18 18 18 18 18 18 18 18 18 18 18 18 18 18 18 18 18 17 17 17 17 17 17 17 17 17 17
19 19 19 19 18 18 18 18 18 18 18 18 18 18 18 18 18 18 18 18 18 18 18 18 18 18 18 18 18 18 18 17 17 17 17 17 17 17 17 17 17 17 17
19 19 19 19 19 18 18 18 18 18 18 18 18 18 18 18 18 18 18 18 18 18 18 18 18 18 18 18 18 18 18 17 17 17 17 17 17 17 17 17 17 17 17
19 19 19 19 19 18 19 18 18 18 18 18 18 18 18 18 18 18 18 18 18 18 18 18 18 18 18 18 18 17 17 17 17 17 17 17 17 17 17 17 17 17 17
19 19 19 19 19 19 19 18 18 18 18 18 18 18 18 18 18 18 18 18 18 18 18 18 18 18 18 18 18 18 17 17 17 17 17 17 17 17 17 17 17 17 16
20 19 19 19 19 19 18 18 18 18 18 18 18 18 18 18 18 18 18 18 17 18 18 18 18 18 17 18 18 17 17 17 17 17 17 17 17 17 17 17 17 17 17
20 20 20 19 19 19 19 18 18 18 18 18 18 18 18 18 17 18 18 17 17 17 17 17 17 17 17 17 17 17 17 17 17 17 17 17 17 17 17 17 17 16 16
20 20 20 19 19 19 19 18 18 18 18 18 18 18 18 18 18 18 18 17 17 17 17 17 17 17 17 17 17 17 17 17 17 17 17 17 17 17 17 17 16 16 16
20 20 20 20 19 19 19 19 18 18 18 18 18 18 18 18 18 18 18 17 17 17 17 17 17 17 17 17 17 17 17 17 17 17 17 17 17 17 17 16 16 16 16
20 20 20 20 19 19 19 19 19 18 18 18 18 18 18 18 18 18 18 18 17 17 17 17 17 17 17 17 17 17 17 17 17 17 17 17 17 17 16 16 16 16 16
21 20 20 20 20 19 19 19 19 19 18 18 18 18 18 18 18 18 18 18 17 17 17 17 17 17 17 17 17 16 16 16 16 17 17 17 17 16 16 16 16 16 16
21 21 20 20 20 20 19 19 19 19 19 19 18 18 18 18 18 18 18 18 18 17 17 17 17 17 17 17 17 16 16 16 16 16 16 16 16 16 16 16 16 16 16
21 21 21 20 20 20 19 19 19 19 19 19 18 18 18 18 18 18 18 18 18 18 17 17 17 17 17 17 17 17 16 16 16 16 16 16 16 16 16 16 16 16 15
21 21 21 20 20 20 20 19 19 19 19 19 19 19 19 18 18 18 18 18 18 18 17 17 17 17 17 17 17 17 16 16 16 16 16 16 16 16 16 16 16 15 15
Wind_Speed
3 4 3 8 9 10 12 12 13 14 15 15 14 14 15 16 15 15 15 15 15 15 15 16 17 17 18 18 18 18 18 17 17 16 15 15 15 14 14 14 13 12 14
1 1 5 8 9 11 12 12 13 14 15 15 14 14 15 15 15 15 15 15 15 15 15 16 17 17 16 16 16 17 17 16 16 15 15 14 14 13 13 13 12 11 13
2 2 5 8 10 11 12 12 13 14 14 14 14 14 14 15 15 15 15 15 15 16 16 16 16 16 16 16 16 16 15 15 14 14 13 11 11 12 12 12 11 12 12
2 3 5 9 10 11 11 12 12 13 14 14 14 15 14 14 15 15 15 15 15 16 16 16 16 15 15 15 15 15 14 13 13 12 9 9 9 10 11 11 11 11 11
3 3 5 9 10 11 11 11 12 13 13 13 13 14 14 14 15 15 15 15 15 15 16 16 15 15 14 14 13 13 12 12 11 10 8 7 7 9 10 10 10 10 10
2 3 4 8 9 10 10 11 12 12 12 12 12 13 13 13 14 14 14 14 14 14 14 14 14 14 13 12 12 11 11 10 9 8 7 6 6 8 9 9 9 9 10
2 2 3 7 9 10 10 10 11 11 11 11 11 12 12 12 12 13 13 13 13 13 13 13 12 12 11 11 10 10 10 9 7 6 6 6 6 8 9 8 8 9 9
2 2 3 6 8 8 9 9 10 10 10 10 10 10 11 11 11 11 11 11 11 11 11 11 10 10 9 9 8 8 8 8 6 5 5 5 6 7 8 8 8 8 8
3 2 2 4 5 6 8 8 9 9 9 9 9 10 10 10 10 10 9 9 9 9 9 9 9 8 7 7 6 6 7 6 5 4 4 4 6 7 8 9 8 8 8
3 2 2 3 4 4 5 6 7 7 7 8 8 8 9 9 8 8 7 7 7 8 7 7 7 6 6 5 5 5 5 4 4 3 3 4 6 7 8 9 8 8 8
3 2 2 2 3 3 3 4 5 6 6 7 7 7 7 6 6 6 6 6 6 6 6 6 5 5 4 4 3 4 4 3 3 3 3 5 6 7 7 8 7 7 8
3 2 1 1 2 2 3 4 4 4 5 6 6 6 6 6 5 5 5 5 5 5 4 4 4 3 3 2 2 2 2 3 3 3 3 5 6 6 7 7 7 7 8
3 3 2 2 2 2 2 3 3 3 4 5 5 5 5 5 5 5 4 4 4 4 4 3 2 2 2 1 2 2 1 2 2 2 3 5 6 6 7 7 7 8 8
4 3 2 3 3 2 2 2 2 2 2 2 3 4 4 3 3 3 2 3 3 3 3 2 2 1 1 1 1 1 1 1 1 2 3 5 6 6 6 6 7 7 7
4 3 3 3 3 3 2 2 2 2 1 1 2 2 3 2 1 2 2 2 2 2 2 2 1 1 1 1 1 1 1 2 2 2 3 4 5 5 6 6 6 6 7
5 4 3 3 3 3 3 2 2 2 2 2 2 1 2 1 1 1 1 1 2 2 1 1 1 1 1 1 1 0 1 1 1 2 2 3 4 4 4 5 6 6 6
5 4 4 4 4 3 3 2 2 2 2 2 1 1 1 2 2 2 1 1 1 1 2 2 2 2 1 1 1 1 0 0 1 2 2 2 2 3 3 4 4 5 6
5 5 5 5 5 4 2 2 1 1 2 1 1 1 1 2 2 2 1 0 1 2 2 1 1 2 1 1 1 1 1 1 1 1 1 2 2 2 3 4 4 4 5
6 6 5 4 5 4 3 2 1 1 1 1 1 1 1 1 2 3 1 0 1 2 1 1 1 1 1 1 1 1 1 1 1 1 0 1 2 2 3 4 5 5 5
6 6 6 5 4 4 3 2 1 1 0 0 1 1 2 2 2 3 1 1 1 1 1 1 1 1 1 1 1 2 2 2 1 1 1 1 1 2 3 3 3 4 5
6 6 6 5 4 4 3 2 2 1 1 1 1 2 2 2 3 2 1 1 1 1 1 1 1 2 1 1 2 2 2 2 1 1 1 1 1 2 2 3 3 3 3
7 7 6 6 5 5 4 3 2 2 1 1 1 1 2 2 3 3 2 2 1 1 1 1 1 1 0 1 1 1 2 2 2 2 1 1 1 1 1 2 2 2 2
7 8 8 6 6 5 4 3 2 2 2 1 1 1 1 2 3 3 3 2 2 2 1 1 1 2 1 1 1 2 1 2 2 2 1 1 2 1 2 2 2 2 2
9 7 6 6 6 5 5 4 4 3 2 2 2 1 1 1 2 2 3 3 2 1 2 2 2 2 2 1 1 1 2 2 1 1 2 2 2 2 3 2 2 2 2
9 8 7 6 6 5 5 6 5 3 3 1 1 1 1 1 1 2 2 2 2 2 2 2 1 2 2 2 1 1 1 0 1 2 2 3 3 2 3 2 2 2 2
7 7 6 6 6 6 6 5 5 5 3 2 2 2 1 1 1 2 2 2 2 2 2 2 2 2 2 2 1 1 2 1 2 2 2 2 3 3 2 2 2 2 2
Wind_Direction
313 315 67 85 88 89 90 90 90 93 95 94 96 99 101 102 104 106 107 109 109 111 116 118 117 121 121 123 125 125 124 125 127 126 125 123 122 121 122 122 121 122 127
299 337 96 89 90 90 91 91 93 95 95 95 95 100 103 105 105 106 106 108 107 106 114 117 116 118 119 121 125 125 125 126 128 127 126 124 123 124 124 123 123 125 129
35 44 97 94 94 93 91 90 96 96 97 98 99 103 105 107 108 107 106 106 106 106 107 112 114 115 117 119 121 122 123 123 125 124 120 118 123 128 129 129 129 130 133
74 56 95 95 95 95 94 92 95 96 97 98 98 101 102 106 105 105 103 104 105 107 107 107 109 114 117 119 119 121 123 123 122 119 113 119 126 132 134 134 136 136 137
70 62 98 99 98 101 99 96 94 96 97 98 99 99 99 102 104 103 101 102 104 107 108 108 109 112 115 117 119 123 125 126 125 121 119 122 128 138 139 141 143 142 143
69 58 104 102 103 105 101 98 96 95 98 99 101 101 101 103 102 103 102 101 102 106 108 109 110 113 116 117 120 125 126 128 124 122 125 130 138 150 148 148 150 152 153
104 67 100 105 109 108 102 99 97 95 96 99 101 101 103 106 106 104 102 102 103 106 108 109 110 111 115 120 122 123 125 129 127 128 136 143 153 160 160 160 161 162 163
107 80 108 109 107 107 104 100 98 96 94 94 98 100 102 102 103 103 102 104 105 106 110 112 110 110 114 119 124 127 131 136 134 140 148 156 166 172 173 174 176 178 180
99 83 72 94 100 103 105 100 98 99 97 96 95 95 97 100 100 100 101 103 106 108 111 114 113 113 115 117 125 135 141 140 135 139 157 166 175 182 184 185 187 191 190
95 78 60 67 75 79 92 98 100 99 97 96 94 93 95 96 96 98 98 100 105 110 112 116 118 116 116 116 124 138 142 147 144 152 165 179 184 187 191 191 192 196 198
114 83 81 72 74 76 81 91 93 96 89 84 83 86 81 73 79 88 97 103 109 112 116 119 125 122 115 108 112 124 130 134 155 171 183 191 192 194 194 191 196 201 205
163 162 127 111 90 80 90 77 73 77 70 64 68 71 70 70 74 82 84 94 99 105 107 114 118 109 93 82 92 103 115 151 169 184 190 198 203 204 204 204 209 213 217
174 166 161 147 120 106 93 86 69 70 63 64 67 73 73 66 60 59 60 64 70 78 74 75 71 71 81 94 95 98 131 167 177 186 198 207 211 213 215 219 222 223 224
150 164 159 143 134 134 129 116 99 88 78 75 78 83 85 66 51 53 59 57 65 76 79 73 67 53 60 110 136 140 186 198 202 211 210 212 217 220 222 225 225 225 229
161 169 165 142 140 141 130 134 121 119 119 112 97 91 99 93 67 60 60 61 60 71 87 89 89 71 63 58 97 137 174 201 220 225 230 228 229 229 230 233 233 231 232
172 173 161 150 151 140 130 128 132 141 134 113 107 111 117 133 117 100 80 62 47 55 79 110 127 103 45 67 61 112 201 218 227 229 238 245 243 235 233 237 236 239 239
176 169 163 164 147 139 139 144 136 137 128 120 128 136 136 144 141 121 102 53 32 70 87 92 89 84 67 61 48 28 3 261 223 224 230 240 259 251 242 241 240 244 247
166 170 176 171 152 150 146 147 137 137 138 155 165 152 143 154 149 129 103 33 44 79 86 82 75 81 63 59 37 4 5 351 265 230 233 245 256 271 269 260 256 258 254
174 172 170 163 154 153 146 136 132 127 136 165 155 163 180 166 155 143 137 121 74 78 64 77 68 98 109 86 54 19 6 349 323 266 265 266 263 266 272 274 267 264 263
175 170 166 163 159 146 132 108 79 69 19 117 192 209 198 191 169 151 146 113 87 82 54 68 80 64 92 75 69 33 1 348 4 352 275 278 281 267 263 270 283 278 273
173 171 171 169 170 150 144 152 154 197 243 262 240 220 204 194 177 163 156 133 122 118 119 106 93 78 59 77 65 18 360 5 8 343 320 309 299 282 275 273 269 272 281
182 182 180 183 181 177 175 169 165 162 192 223 263 245 221 205 196 190 176 177 170 140 106 109 116 117 128 99 102 66 345 340 351 2 3 340 309 302 287 291 283 266 263
188 189 192 191 188 186 172 133 107 78 47 29 328 286 263 221 211 194 183 182 177 170 200 217 180 169 195 240 148 149 157 261 310 338 351 357 337 318 302 306 291 280 260
197 191 189 186 184 183 169 163 164 172 195 224 226 242 280 246 225 205 191 189 193 193 214 230 199 185 174 221 230 193 198 188 209 307 333 340 322 314 305 311 308 295 280
192 187 186 180 184 182 175 178 175 189 208 223 222 254 286 302 273 235 204 191 200 214 225 232 215 196 188 197 200 196 182 164 206 214 286 315 334 320 305 303 306 308 307
188 185 182 180 190 186 182 182 181 190 199 198 216 232 252 275 283 265 221 202 209 221 230 232 222 204 201 200 198 197 197 199 210 202 243 287 306 312 320 321 317 310 304
Height
1504 1502 1501 1500 1499 1499 1499 1498 1497 1497 1498 1498 1498 1499 1500 1501 1502 1504 1505 1507 1508 1510 1512 1513 1515 1518 1520 1523 1525 1527 1529 1532 1534 1536 1539 1540 1542 1544 1546 1547 1549 1550 1551
1505 1504 1503 1502 1502 1502 1501 1501 1500 1500 1501 1501 1501 1502 1503 1504 1505 1507 1508 1510 1511 1512 1513 1515 1518 1520 1523 1525 1528 1530 1532 1534 1536 1539 1540 1542 1544 1546 1547 1548 1550 1551 1552
1507 1506 1505 1505 1505 1505 1504 1504 1503 1503 1504 1504 1504 1505 1506 1507 1508 1510 1511 1513 1514 1516 1517 1519 1521 1523 1525 1527 1530 1532 1534 1536 1538 1540 1542 1544 1545 1547 1548 1550 1551 1552 1553
1509 1508 1508 1508 1508 1508 1507 1507 1507 1507 1507 1507 1508 1508 1509 1510 1511 1513 1514 1516 1517 1519 1520 1522 1524 1526 1528 1530 1532 1534 1536 1538 1540 1542 1543 1545 1546 1548 1549 1551 1552 1553 1554
1511 1511 1510 1510 1510 1511 1511 1510 1510 1510 1510 1511 1512 1512 1512 1513 1514 1516 1517 1519 1520 1522 1523 1525 1527 1529 1530 1533 1534 1536 1539 1540 1542 1543 1545 1546 1548 1549 1550 1551 1553 1554 1555
1513 1513 1513 1513 1513 1514 1514 1514 1514 1514 1514 1515 1515 1516 1516 1517 1518 1519 1521 1522 1523 1525 1527 1528 1530 1532 1533 1535 1537 1539 1540 1542 1544 1545 1546 1547 1549 1550 1551 1552 1553 1554 1555
1515 1515 1516 1516 1516 1517 1517 1517 1518 1518 1518 1518 1519 1520 1520 1521 1522 1523 1524 1525 1527 1528 1530 1531 1533 1535 1536 1538 1539 1541 1542 1544 1545 1546 1547 1549 1550 1551 1552 1553 1554 1555 1556
1518 1518 1518 1518 1519 1519 1520 1521 1521 1521 1521 1522 1522 1523 1523 1524 1525 1526 1528 1529 1530 1531 1533 1534 1536 1537 1539 1540 1541 1542 1544 1545 1546 1547 1548 1549 1550 1551 1552 1553 1554 1555 1556
1520 1520 1521 1521 1521 1522 1523 1524 1524 1524 1525 1525 1526 1526 1527 1528 1529 1530 1531 1532 1533 1534 1535 1537 1538 1539 1540 1541 1543 1544 1545 1546 1547 1548 1549 1550 1551 1552 1553 1553 1554 1555 1556
1523 1523 1523 1524 1524 1525 1526 1526 1527 1528 1528 1529 1529 1529 1530 1531 1532 1533 1534 1535 1536 1537 1538 1539 1540 1541 1542 1543 1544 1545 1546 1547 1548 1549 1549 1550 1551 1552 1552 1553 1554 1554 1555
1525 1526 1526 1527 1528 1528 1528 1529 1530 1530 1531 1532 1532 1532 1533 1534 1535 1535 1536 1537 1538 1539 1540 1541 1542 1543 1543 1544 1545 1546 1546 1547 1548 1549 1550 1551 1551 1552 1552 1553 1554 1554 1555
1526 1528 1529 1530 1530 1531 1531 1532 1532 1533 1533 1534 1534 1535 1536 1536 1537 1537 1538 1539 1540 1540 1541 1542 1543 1544 1545 1545 1546 1547 1547 1548 1549 1549 1550 1551 1551 1551 1552 1552 1553 1553 1554
1528 1530 1531 1532 1533 1533 1534 1534 1535 1536 1536 1537 1537 1537 1538 1538 1539 1539 1540 1541 1541 1542 1543 1543 1544 1545 1545 1546 1546 1547 1548 1549 1549 1549 1550 1550 1551 1551 1551 1551 1552 1552 1553
1530 1532 1533 1534 1535 1536 1536 1536 1537 1538 1539 1539 1540 1540 1540 1540 1541 1541 1542 1542 1543 1543 1544 1544 1545 1545 1546 1547 1547 1548 1548 1549 1549 1549 1549 1550 1550 1550 1550 1550 1551 1551 1551
1532 1533 1534 1536 1537 1538 1538 1539 1539 1540 1541 1541 1541 1542 1542 1542 1542 1543 1543 1543 1544 1544 1545 1545 1546 1546 1546 1547 1547 1548 1548 1548 1549 1549 1549 1549 1549 1549 1549 1549 1549 1550 1550
1533 1534 1536 1537 1538 1539 1540 1540 1541 1542 1542 1543 1543 1543 1544 1544 1544 1544 1544 1545 1545 1545 1545 1546 1546 1546 1546 1547 1547 1547 1548 1548 1548 1548 1548 1548 1549 1548 1548 1548 1548 1548 1548
1534 1535 1537 1538 1539 1540 1541 1542 1542 1543 1544 1544 1544 1545 1545 1545 1545 1545 1545 1546 1546 1546 1546 1546 1546 1546 1546 1547 1547 1547 1547 1547 1547 1547 1547 1547 1547 1547 1547 1547 1547 1547 1547
1535 1536 1537 1539 1540 1541 1542 1543 1543 1544 1545 1545 1545 1546 1546 1546 1546 1546 1546 1546 1547 1547 1547 1546 1546 1546 1546 1546 1546 1546 1546 1546 1546 1546 1546 1546 1546 1546 1546 1546 1546 1546 1545
1535 1536 1538 1539 1540 1542 1543 1544 1544 1545 1545 1546 1546 1546 1546 1547 1547 1547 1547 1547 1547 1547 1547 1547 1546 1546 1546 1546 1546 1546 1545 1545 1545 1545 1545 1545 1545 1545 1545 1545 1544 1544 1544
1535 1537 1538 1539 1541 1542 1543 1544 1545 1545 1546 1546 1546 1547 1547 1547 1547 1547 1547 1547 1547 1547 1547 1547 1547 1546 1546 1546 1545 1545 1545 1544 1544 1544 1544 1544 1544 1544 1544 1543 1543 1542 1542
1535 1536 1538 1539 1541 1542 1543 1543 1544 1545 1546 1546 1546 1546 1547 1547 1547 1547 1547 1547 1547 1547 1547 1547 1547 1546 1546 1545 1545 1544 1544 1544 1544 1543 1543 1543 1543 1542 1542 1541 1541 1540 1539
1534 1535 1537 1538 1540 1541 1542 1543 1544 1545 1545 1546 1546 1546 1547 1547 1547 1547 1546 1547 1547 1547 1546 1546 1546 1546 1545 1545 1545 1544 1543 1544 1543 1542 1542 1542 1542 1541 1540 1539 1539 1538 1537
1532 1534 1536 1537 1539 1540 1541 1543 1543 1544 1545 1545 1546 1546 1546 1546 1546 1546 1546 1546 1546 1546 1546 1546 1546 1545 1545 1545 1544 1544 1543 1542 1542 1541 1541 1541 1540 1539 1539 1538 1537 1536 1535
1530 1533 1534 1536 1538 1539 1540 1541 1542 1543 1543 1544 1545 1545 1546 1546 1546 1546 1546 1546 1546 1546 1545 1545 1545 1544 1544 1544 1543 1543 1543 1542 1541 1540 1540 1539 1539 1538 1537 1536 1535 1534 1533
1528 1530 1532 1534 1536 1538 1539 1540 1541 1542 1543 1544 1544 1544 1545 1545 1545 1545 1545 1545 1545 1545 1544 1544 1543 1543 1543 1543 1542 1542 1541 1541 1540 1539 1538 1537 1537 1536 1535 1534 1533 1532 1531
1525 1528 1530 1532 1534 1536 1537 1538 1539 1540 1541 1542 1543 1543 1543 1544 1544 1544 1544 1544 1544 1544 1543 1543 1542 1542 1542 1541 1541 1541 1540 1539 1538 1538 1536 1535 1534 1534 1533 1532 1531 1530 1529